Stations météo

réclame
Mon MeteoGroup
Aultbea, Grande-Bretagne (3034): Température de l'air & dewpoint: 17.02.2020 04:00:00 - 23.02.2020 04:00:00 (GMT)Aultbea, Grande-Bretagne (3034): Température de l'air -20cm & Température de l'air -100cm: 17.02.2020 04:00:00 - 23.02.2020 04:00:00 (GMT)Aultbea, Grande-Bretagne (3034): Vitesse du vent & gusts: 17.02.2020 04:00:00 - 23.02.2020 04:00:00 (GMT)Aultbea, Grande-Bretagne (3034): Direction du vent: 17.02.2020 04:00:00 - 23.02.2020 04:00:00 (GMT)Aultbea, Grande-Bretagne (3034): reduced air pressure: 17.02.2020 04:00:00 - 23.02.2020 04:00:00 (GMT)Aultbea, Grande-Bretagne (3034): visibility: 17.02.2020 04:00:00 - 23.02.2020 04:00:00 (GMT)Aultbea, Grande-Bretagne (3034): Quantités de précipitations: 17.02.2020 04:00:00 - 23.02.2020 04:00:00 (GMT)
Date & Time tt [°C] td [°C] tt -20cm [°C] tt -100cm [°C] ff [km/h] ff [knt] fx [km/h] fx [knt] dd ppp [hPa] vv [km] rr [mm]
23.02.2020 04:00:00 4,5 0,3 - - 31 17 54 29 WSW 998,7 17 0,0
23.02.2020 03:00:00 5,4 0,8 - - 34 18 55 30 WSW 998,7 13 0,0
23.02.2020 02:00:00 5,2 0,5 - - 37 20 65 35 WSW 999,2 13 0,0
23.02.2020 01:00:00 5,7 1,4 - - 37 20 63 34 WSW 999,7 11 0,0
23.02.2020 00:00:00 5,1 1,5 - - 31 17 61 33 W 999,7 12 0,0
22.02.2020 23:00:00 5,2 0,3 - - 42 23 63 34 WSW 999,9 16 0,0
22.02.2020 22:00:00 5,3 1,0 - - 48 26 72 39 WSW 999,7 13 0,2
22.02.2020 21:00:00 5,3 1,8 - - 42 23 70 38 WSW 999,1 5 0,0
22.02.2020 20:00:00 5,9 0,2 - - 48 26 76 41 WSW 998,7 11 0,0
22.02.2020 19:00:00 5,4 1,0 - - 50 27 94 51 WSW 997,7 9 0,4
22.02.2020 18:00:00 5,7 1,2 - - 44 24 78 42 WSW 996,8 8 0,0
22.02.2020 17:00:00 4,3 1,4 - - 61 33 94 51 W 996,1 9 0,0
22.02.2020 16:00:00 5,6 1,4 - - 50 27 98 53 WSW 995,2 9 0,0
22.02.2020 15:00:00 4,5 2,9 - - 50 27 91 49 W 994,5 9 1,2
22.02.2020 14:00:00 6,0 -0,5 - - 52 28 80 43 WSW 993,6 11 0,0
22.02.2020 13:00:00 6,3 0,5 - - 52 28 81 44 WSW 992,8 9 0,0
22.02.2020 12:00:00 5,9 -0,3 - - 54 29 87 47 WSW 991,8 10 0,2
22.02.2020 11:00:00 5,4 -0,3 - - 50 27 80 43 WSW 991,2 10 0,0
22.02.2020 10:00:00 5,0 0,1 - - 48 26 83 45 WSW 990,4 11 0,2
22.02.2020 09:00:00 3,3 -0,5 5,4 6,0 52 28 80 43 W 990,5 9 0,4
22.02.2020 08:00:00 4,9 -0,5 - - 46 25 74 40 WSW 989,2 13 0,0
22.02.2020 07:00:00 3,8 1,0 - - 42 23 80 43 WSW 988,9 15 0,4
22.02.2020 06:00:00 3,3 1,6 - - 46 25 87 47 W 988,5 12 0,4
22.02.2020 05:00:00 4,4 0,2 - - 41 22 98 53 WSW 987,6 17 0,2
22.02.2020 04:00:00 4,9 0,1 - - 46 25 76 41 W 987,9 14 0,0
22.02.2020 03:00:00 4,3 2,4 - - 34 18 93 50 WSW 987,6 15 0,4
22.02.2020 02:00:00 4,6 2,6 - - 34 18 72 39 WSW 987,2 16 1,0
22.02.2020 01:00:00 5,0 3,2 - - 29 16 61 33 WSW 986,8 19 0,8
22.02.2020 00:00:00 5,2 3,4 - - 41 22 67 36 WSW 986,5 9 3,0
21.02.2020 23:00:00 5,9 4,3 - - 24 13 - - SW 986,7 8 0,2
21.02.2020 22:00:00 5,2 3,6 - - 26 14 57 31 W 988,1 10 1,4
21.02.2020 21:00:00 5,9 4,4 - - 37 20 74 40 WSW 988,6 3,7 1,2
21.02.2020 20:00:00 7,4 4,5 - - 50 27 70 38 SW 989,5 11 0,6
21.02.2020 19:00:00 8,4 3,8 - - 44 24 61 33 SW 990,0 11 0,0
21.02.2020 18:00:00 8,2 2,1 - - 37 20 74 40 SW 991,1 14 0,0
21.02.2020 17:00:00 7,8 3,4 - - 50 27 80 43 WSW 992,1 9 0,2
21.02.2020 16:00:00 9,2 4,7 - - 46 25 74 40 WSW 991,4 10 0,0
21.02.2020 15:00:00 9,2 5,4 - - 41 22 74 40 WSW 991,3 9 1,0
21.02.2020 14:00:00 8,9 5,3 - - 50 27 76 41 WSW 992,2 9 0,0
21.02.2020 13:00:00 10,1 3,5 - - 48 26 72 39 WSW 991,5 12 0,0
21.02.2020 12:00:00 9,4 4,9 - - 39 21 72 39 SW 991,4 9 0,0
21.02.2020 11:00:00 9,7 5,2 - - 44 24 83 45 WSW 991,5 8 0,0
21.02.2020 10:00:00 10,0 7,2 - - 50 27 83 45 WSW 990,4 9 0,6
21.02.2020 09:00:00 9,7 8,1 5,0 6,0 48 26 81 44 SW 989,8 10 0,2
21.02.2020 08:00:00 8,9 7,6 - - 52 28 80 43 SSW 989,7 5 0,0
21.02.2020 07:00:00 8,6 7,1 - - 63 34 91 49 SSW 990,1 3,5 0,8
21.02.2020 06:00:00 7,8 6,2 - - 55 30 89 48 SSW 991,1 3,5 2,4
21.02.2020 05:00:00 7,8 5,9 - - 65 35 93 50 SW 992,6 3,8 1,8
21.02.2020 04:00:00 7,5 5,6 - - 59 32 96 52 SSW 993,7 3,3 1,0
21.02.2020 03:00:00 7,4 4,7 - - 59 32 80 43 SSW 995,1 7 0,4
21.02.2020 02:00:00 7,1 4,5 - - 48 26 65 35 SSW 997,0 8 0,2
21.02.2020 01:00:00 6,5 3,7 - - 42 23 61 33 SSW 998,3 14 0,0
21.02.2020 00:00:00 6,6 2,6 - - 41 22 59 32 SW 999,0 18 0,0
20.02.2020 23:00:00 6,2 2,3 - - 37 20 61 33 SW 999,1 17 0,0
20.02.2020 22:00:00 6,2 1,8 - - 42 23 65 35 WSW 998,5 13 0,0
20.02.2020 21:00:00 5,2 1,8 - - 34 18 76 41 W 998,0 14 0,0
20.02.2020 20:00:00 5,7 0,3 - - 41 22 65 35 W 997,2 10 0,2
20.02.2020 19:00:00 5,2 1,5 - - 35 19 63 34 WSW 995,9 12 0,0
20.02.2020 18:00:00 4,4 1,5 - - 37 20 81 44 W 994,7 15 0,2
20.02.2020 17:00:00 5,6 1,0 - - 37 20 68 37 W 993,5 17 0,0
20.02.2020 16:00:00 5,5 0,5 - - 37 20 65 35 W 992,6 19 0,0
20.02.2020 15:00:00 4,8 1,0 - - 46 25 81 44 W 991,7 16 0,2
20.02.2020 14:00:00 5,4 0,9 - - 35 19 68 37 WSW 991,5 19 0,0
20.02.2020 13:00:00 3,1 1,0 - - 37 20 72 39 SW 991,6 25 0,4
20.02.2020 12:00:00 2,7 -1,7 - - 37 20 63 34 WSW 991,4 4,7 0,4
20.02.2020 11:00:00 3,8 0,9 - - 37 20 48 26 SW 991,5 30 0,0
20.02.2020 10:00:00 4,3 1,6 - - 28 15 63 34 SW 991,8 30 0,0
20.02.2020 09:00:00 4,1 0,5 5,2 6,0 35 19 52 28 W 991,9 19 0,0
20.02.2020 08:00:00 4,8 0,4 - - 28 15 48 26 WSW 991,7 21 0,0
20.02.2020 07:00:00 5,1 -0,6 - - 28 15 - - WSW 991,5 25 0,2
20.02.2020 06:00:00 5,0 1,7 - - 21 11 - - WSW 991,3 17 1,0
20.02.2020 05:00:00 5,4 1,8 - - 21 11 - - SW 990,9 10 0,0
20.02.2020 04:00:00 5,3 2,9 - - 18 10 57 31 WSW 991,4 16 1,2
20.02.2020 03:00:00 5,5 4,1 - - 21 11 46 25 SW 991,5 13 2,4
20.02.2020 02:00:00 6,3 4,0 - - 28 15 48 26 SW 991,8 11 0,4
20.02.2020 01:00:00 7,8 4,4 - - 35 19 50 27 SSW 991,8 11 0,0
20.02.2020 00:00:00 7,7 5,0 - - 31 17 59 32 SSW 992,6 11 0,0
19.02.2020 23:00:00 7,8 5,1 - - 34 18 46 25 SSW 992,9 10 0,0
19.02.2020 22:00:00 7,8 4,9 - - 29 16 - - SW 992,7 11 0,0
19.02.2020 21:00:00 8,2 6,0 - - 22 12 - - SW 992,6 9 0,0
19.02.2020 20:00:00 8,4 6,8 - - 29 16 48 26 WSW 992,4 10 1,4
19.02.2020 19:00:00 9,0 8,4 - - 39 21 50 27 SW 991,7 2,3 1,8
19.02.2020 18:00:00 8,4 7,2 - - 41 22 65 35 S 991,4 5 2,8
19.02.2020 17:00:00 8,1 6,3 - - 52 28 67 36 S 991,9 5 1,4
19.02.2020 16:00:00 7,7 5,0 - - 41 22 59 32 S 992,9 13 0,2
19.02.2020 15:00:00 7,1 3,2 - - 24 13 - - SSE 994,6 40 0,0
19.02.2020 14:00:00 7,6 2,8 - - 26 14 52 28 SSE 997,0 45 0,0
19.02.2020 13:00:00 7,2 2,2 - - 35 19 61 33 S 999,5 45 0,0
19.02.2020 12:00:00 6,6 2,6 - - 35 19 50 27 S 1001,7 30 0,0
19.02.2020 11:00:00 6,3 1,8 - - 26 14 - - S 1003,3 26 0,0
19.02.2020 10:00:00 6,2 1,8 - - 28 15 - - SSW 1004,6 20 0,0
19.02.2020 09:00:00 5,0 1,9 4,7 6,0 22 12 - - SSW 1005,4 19 0,0
19.02.2020 08:00:00 4,4 1,2 - - 15 8 - - SW 1006,2 23 0,0
19.02.2020 07:00:00 5,8 0,6 - - 26 14 48 26 WSW 1006,5 20 0,0
19.02.2020 06:00:00 5,0 0,3 - - 24 13 46 25 WSW 1006,4 21 -
19.02.2020 05:00:00 6,0 1,3 - - 28 15 46 25 W 1006,2 14 -
19.02.2020 04:00:00 6,1 1,8 - - 28 15 48 26 W 1005,8 15 0,0
19.02.2020 03:00:00 6,1 2,3 - - 31 17 55 30 W 1005,2 14 0,0
19.02.2020 02:00:00 6,2 2,7 - - 31 17 52 28 W 1004,3 16 0,0
19.02.2020 01:00:00 6,4 2,8 - - 34 18 59 32 W 1003,5 17 0,2
19.02.2020 00:00:00 5,9 3,4 - - 29 16 50 27 W 1002,7 12 0,2
18.02.2020 23:00:00 6,1 3,3 - - 34 18 50 27 W 1001,5 18 0,0
18.02.2020 22:00:00 6,0 3,3 - - 29 16 55 30 W 1000,6 12 0,0
18.02.2020 21:00:00 5,7 3,3 - - 41 22 63 34 W 999,4 11 1,6
18.02.2020 20:00:00 4,2 2,6 - - 42 23 63 34 W 999,1 - 2,8
18.02.2020 19:00:00 4,5 2,9 - - 21 11 48 26 W 998,6 14 0,4
18.02.2020 18:00:00 5,1 1,3 - - 24 13 - - W 997,9 23 0,0
18.02.2020 17:00:00 4,5 1,9 - - 18 10 48 26 WSW 997,7 23 0,2
18.02.2020 16:00:00 3,7 2,3 - - 21 11 46 25 SW 997,6 28 1,0
18.02.2020 15:00:00 3,5 1,9 - - 24 13 52 28 SW 997,4 40 0,0
18.02.2020 14:00:00 5,9 0,0 - - 31 17 52 28 WSW 997,2 45 0,2
18.02.2020 13:00:00 5,3 1,9 - - 28 15 46 25 SW 997,2 10 0,0
18.02.2020 12:00:00 5,1 0,7 - - 34 18 46 25 SW 997,5 30 0,0
18.02.2020 11:00:00 5,1 2,0 - - 31 17 63 34 WSW 997,4 24 0,0
18.02.2020 10:00:00 5,4 1,5 - - 31 17 52 28 SW 997,1 25 -
18.02.2020 09:00:00 4,6 0,8 5,0 6,0 35 19 63 34 SW 996,9 40 0,0
18.02.2020 08:00:00 4,7 2,4 - - 31 17 61 33 SW 996,6 13 0,2
18.02.2020 07:00:00 4,3 1,4 - - 31 17 52 28 WSW 996,6 30 0,6
18.02.2020 06:00:00 4,4 1,9 - - 31 17 52 28 WSW 996,8 7 -
18.02.2020 05:00:00 3,7 1,6 - - 35 19 59 32 WSW 996,9 26 0,2
18.02.2020 04:00:00 5,4 0,7 - - 35 19 59 32 WSW 996,7 25 0,0
18.02.2020 03:00:00 4,9 1,9 - - 29 16 55 30 SW 996,9 22 0,0
18.02.2020 02:00:00 5,5 2,1 - - 37 20 55 30 WSW 997,1 15 0,0
18.02.2020 01:00:00 3,9 2,3 - - 26 14 59 32 SW 997,4 17 0,4
18.02.2020 00:00:00 4,9 1,7 - - 37 20 65 35 WSW 997,0 14 -
17.02.2020 23:00:00 5,7 0,4 - - 35 19 63 34 WSW 996,3 21 0,0
17.02.2020 22:00:00 6,2 1,6 - - 31 17 68 37 W 995,5 13 0,0
17.02.2020 21:00:00 6,6 1,7 - - 29 16 61 33 W 994,8 12 0,0
17.02.2020 20:00:00 7,0 2,4 - - 35 19 57 31 W 993,8 11 0,0
17.02.2020 19:00:00 6,2 3,6 - - 21 11 46 25 W 992,9 13 0,0
17.02.2020 18:00:00 5,8 2,8 - - 29 16 50 27 W 991,7 14 0,6
17.02.2020 17:00:00 5,7 3,6 - - 28 15 63 34 WSW 990,4 19 0,6
17.02.2020 16:00:00 6,6 3,7 - - 34 18 63 34 WSW 989,3 18 0,0
17.02.2020 15:00:00 6,9 3,5 - - 42 23 74 40 WSW 988,4 26 0,2
17.02.2020 14:00:00 8,0 3,4 - - 41 22 61 33 WSW 987,6 14 0,0
17.02.2020 13:00:00 8,1 3,3 - - 39 21 57 31 WSW 987,3 15 0,0
17.02.2020 12:00:00 7,9 4,2 - - 34 18 61 33 SW 986,4 11 0,0
17.02.2020 11:00:00 7,7 4,3 - - 34 18 61 33 WSW 984,9 10 0,0
17.02.2020 10:00:00 7,7 4,5 - - 34 18 65 35 WSW 983,4 9 0,8
17.02.2020 09:00:00 7,0 4,0 4,9 6,0 41 22 65 35 WSW 981,8 12 0,2
17.02.2020 08:00:00 7,3 5,1 - - 41 22 65 35 W 979,7 11 0,8
17.02.2020 07:00:00 6,3 3,7 - - 42 23 72 39 WSW 978,2 14 0,2
17.02.2020 06:00:00 7,3 3,2 - - 37 20 67 36 WSW 976,4 11 0,0
17.02.2020 05:00:00 8,1 4,1 - - 42 23 72 39 WSW 974,5 8 0,0
17.02.2020 04:00:00 8,0 4,2 - - 46 25 83 45 WSW 972,2 8 0,0

tt = Température de l'air
td = dewpoint
tt -20cm = Température de l'air -20cm
tt -100cm = Température de l'air -100cm
ff = Vitesse du vent
fx = gusts
dd = Direction du vent
ppp = reduced air pressure
vv = visibility
rr = Quantités de précipitations

stations d'obs. à proximité